Weather History for Maxwell AFB, AL

Change the Weather History Date:

Monday, May 20, 2013

  Actual Average Record
Temperature  
Mean Temperature 76 °F -  
Max Temperature 89 °F 84 °F 95 °F (1998)
Min Temperature 64 °F 63 °F 48 °F (2002)
Cooling Degree Days 11    
Growing Degree Days 26 (Base 50)    
Moisture  
Dew Point 66 °F    
Average Humidity 70    
Maximum Humidity 93    
Minimum Humidity 46    
Precipitation  
Precipitation 0.00 in - - ()
Sea Level Pressure  
Sea Level Pressure 30.04 in    
Wind  
Wind Speed 3 mph (SE)    
Max Wind Speed 8 mph    
Max Gust Speed -    
Visibility 10 miles    
Events      
Averages and records for this station are not official NWS values.
T = Trace of Precipitation, MM = Missing Value Source: NWS Daily Summary

Daily Weather History Graph

Daily Weather History Graph

Search for Another Location

Airport:

Trip Planner

Search our weather history database for the weather conditions in past years. The results will help you decide how hot, cold, wet, or windy it might be!

Date:

Astronomy

May. 20, 2013 Rise Set
Actual Time 5:44 AM CDT 7:40 PM CDT
Civil Twilight 5:16 AM CDT 8:07 PM CDT
Nautical Twilight 4:43 AM CDT 8:40 PM CDT
Astronomical Twilight 4:08 AM CDT 9:16 PM CDT
Moon 3:02 PM CDT (5/20) 2:21 AM CDT (5/20)
Length of Visible Light 14h 50m
Length of Day
13h 56m
Waxing Gibbous, 75% of the Moon is Illuminated
May 20
Waxing Gibbous
May 24
Full
May 31
Last Quarter
Jun 8
New
Jun 16
First Quarter

Hourly Weather History & Observations

Time (CDT) Temp. Heat Index Dew Point Humidity Pressure Visibility Wind Dir Wind Speed Gust Speed Precip Events Conditions
12:58 AM 70.3 °F - 63.7 °F 79% 30.01 in 10.0 mi Calm Calm - N/A   Clear
1:58 AM 69.8 °F - 64.0 °F 82% 30.01 in 10.0 mi East 3.5 mph - N/A   Scattered Clouds
2:58 AM 68.0 °F - 63.7 °F 86% 30.00 in 10.0 mi NW 2.3 mph - N/A   Clear
3:58 AM 66.7 °F - 63.1 °F 88% 30.02 in 10.0 mi ENE 3.5 mph - N/A   Clear
4:13 AM 68.0 °F - 62.6 °F 83% 30.02 in 10.0 mi North 1.2 mph - N/A   Mostly Cloudy
4:58 AM 67.8 °F - 63.7 °F 87% 30.02 in 10.0 mi ESE 2.3 mph - N/A   Scattered Clouds
5:58 AM 64.9 °F - 62.8 °F 93% 30.04 in 10.0 mi NE 2.3 mph - N/A   Clear
6:58 AM 68.0 °F - 64.4 °F 88% 30.06 in 10.0 mi Calm Calm - N/A   Scattered Clouds
7:08 AM 69.8 °F - 64.4 °F 83% 30.05 in 10.0 mi East 2.3 mph - N/A   Mostly Cloudy
7:58 AM 72.7 °F - 65.7 °F 79% 30.08 in 10.0 mi ESE 4.6 mph - N/A   Overcast
8:48 AM 75.2 °F - 68.0 °F 78% 30.09 in 10.0 mi SE 5.8 mph - N/A   Overcast
8:58 AM 75.4 °F - 67.5 °F 76% 30.10 in 10.0 mi ESE 8.1 mph - N/A   Overcast
9:38 AM 78.8 °F - 68.0 °F 69% 30.09 in 10.0 mi South 5.8 mph - N/A   Scattered Clouds
9:58 AM 79.7 °F - 67.3 °F 66% 30.10 in 10.0 mi Variable 4.6 mph - N/A   Partly Cloudy
10:28 AM 80.6 °F 82.7 °F 66.2 °F 61% 30.09 in 10.0 mi Variable 2.3 mph - N/A   Mostly Cloudy
10:38 AM 80.6 °F 82.7 °F 66.2 °F 61% 30.09 in 10.0 mi Variable 2.3 mph - N/A   Mostly Cloudy
10:43 AM 82.4 °F 84.6 °F 66.2 °F 58% 30.09 in 10.0 mi Variable 1.2 mph - N/A   Mostly Cloudy
10:53 AM 80.6 °F 83.2 °F 68.0 °F 65% 30.09 in 10.0 mi Variable 1.2 mph - N/A   Mostly Cloudy
10:58 AM 81.0 °F 83.4 °F 67.1 °F 63% 30.10 in 10.0 mi Variable 1.2 mph - N/A   Mostly Cloudy
11:58 AM 82.9 °F 85.4 °F 66.9 °F 58% 30.09 in 10.0 mi Variable 3.5 mph - N/A   Scattered Clouds
12:58 PM 85.8 °F 88.8 °F 67.5 °F 54% 30.06 in 10.0 mi Variable 4.6 mph - N/A   Partly Cloudy
1:58 PM 87.3 °F 89.8 °F 66.6 °F 50% 30.06 in 10.0 mi Variable 3.5 mph - N/A   Clear
2:58 PM 88.7 °F 91.1 °F 65.8 °F 47% 30.04 in 10.0 mi Variable 5.8 mph - N/A   Partly Cloudy
3:58 PM 87.3 °F 89.8 °F 66.4 °F 50% 30.02 in 10.0 mi South 6.9 mph - N/A   Clear
4:58 PM 88.9 °F 91.0 °F 65.7 °F 46% 30.00 in 10.0 mi Variable 4.6 mph - N/A   Partly Cloudy
5:58 PM 88.0 °F 90.7 °F 66.7 °F 49% 29.99 in 10.0 mi SSE 4.6 mph - N/A   Clear
6:58 PM 86.0 °F 88.2 °F 65.8 °F 51% 29.99 in 10.0 mi SE 5.8 mph - N/A   Clear
7:58 PM 81.7 °F 84.2 °F 67.3 °F 61% 29.99 in 10.0 mi South 3.5 mph - N/A   Clear
8:58 PM 76.5 °F - 68.0 °F 75% 30.00 in 10.0 mi SSE 3.5 mph - N/A   Clear
9:58 PM 74.1 °F - 68.2 °F 82% 30.01 in 10.0 mi South 2.3 mph - N/A   Clear
10:58 PM 72.9 °F - 67.5 °F 83% 30.01 in 10.0 mi SSE 2.3 mph - N/A   Clear
11:58 PM 70.9 °F - 68.5 °F 92% 30.00 in 10.0 mi Calm Calm - N/A   Clear